星链-1325 (STARLINK-1325 )

导读

STARLINK-1325是美国太空探索技术公司发射的星链卫星,是星链星座组成部分,于2020年4月22日发射升空。星链计划旨在构建全球卫星互联网,该卫星通过提供宽带互联网服务,可覆盖偏远地区,满足全球网络接入需求,推进太空互联网组网进程。

Basic Information
目录编号:
45554
目录名称:
STARLINK-1325
国际标识:
2020-025Z
轨道中心:
EARTH
卫星名称:
星链-1325
卫星全名:
星链-1325 (STARLINK-1325 )
卫星状态:
已陨落 最后检测时间 2026-01-29
发射日期:
2020-04-22 UTC
国别 :
美国 (US)
星等 :
--
Orbit Information
数据来源 国际轨道数据
星历时间: 2026-01-30T03:19:31+0800
轨道信息已过期140天
半长轴: 6544.131km
偏心率: 0.0007659
轨道倾角: 53.037°
近地点辐角 265.275°
升交点赤经 158.883°
平近点角 94.743°
近地点: 160.981km
远地点: 171.007km
周期: 87.809分钟
每日圈数: 16.399283
Detailed Information
固有亮度:
5
最大亮度:
2.5
卫星平台:
Starlink V1.0
覆盖范围:
全球
运营商:
太空探索技术公司
运营商所在国:
美国
制造商(研发单位):
太空探索技术公司
制造商所在国:
美国
使用方式:
暂无
Satellite Introduction
星链(Starlink)计划是由太空探索技术公司(SpaceX)提出的一个巨型低轨卫星互联网星座项目,计划在2019年至2024年间在太空搭建由约1.2万颗卫星组成的“星链”网络,其中1584颗将部署在地球上空550千米处的近地轨道,并从2020年开始工作。该卫星仍在工作。